Showing default

COSMOS 1560, 14999

Orbit data source: Space-Track

COSMOS 1560, 14999 is a payload satellite owned by GUKOS (CIS) in LEO that was launched on Mon, 28 May 1984 UTC via a KOSMOS 11K65M launch vehicle from the Plesetsk Missile And Space Complex (PKMTR). Payload-class satellites include a variety of spacecraft equipped with specific instruments for various scientific and technological missions. These include communications satellites like Starlink; space stations such as the ISS; scientific satellites like the Hubble; Earth observation satellites from companies like Planet Labs, Umbra, and HawkEye 360; GPS; miniature CubeSats for education and research; and military/defense satellites.

Loading next visibility...
Identifier
14999, 1984-052B
Orbit
LEO
Country
Flag of CISCIS
Related business
Manufacturer
NPO PM
Mission
Spacecraft
Bus & Motor
STRELA-1 11F625, Unknown motor
Mass
60 kg wet, 60 kg dry
Launch date (UTC)
1984-05-28 (42 years ago)
Launch vehicle
KOSMOS 11K65M
Launch site
Plesetsk Missile And Space Complex (PKMTR)
Object type
Payload
Rocket body
Debris
Shape & HBR
Unknown
Radar Cross Section
Medium (>0.1 m² and <1 m²)

Expand to show TLE details & history
Last TLE update: 7 hours ago

TLE from 7 hours ago
0 COSMOS 1560
1 14999U 84052B   26037.10046656  .00000000  00000-0  10990-3 0  9999
2 14999  74.0110 275.1565 0014183 216.7768 295.6453 12.46116108896504
Epoch: 2026-02-06T02:24Z
TLE epoch observation values (Epoch: 2026-02-06T02:24:40.310Z)
Latitude
26.60473°
Longitude
-85.46532°
Altitude
1,478.718 km
Speed
7.129 km/s
True Right ascension
05h 47m 46s
True Declination
26° 28' 48"
Sunlit
Object was in full shadow at epoch
Visualization orbit readout
Latitude
Unknown
Longitude
Unknown
Altitude
Unknown
Speed
Unknown
Apparent Right ascension
Unknown
Apparent Declination
Unknown
Sunlit
N/A
Visualization observer readout
Local Sidereal Time
11:08:02
Azimuth
Unknown
Elevation
Unknown
Doppler factor
Unknown
Orbital elements
Apogee altitude
1,489.767 km
Perigee altitude
1,467.48 km
Semi-major axis
7,856.76 km
Eccentricity
0.00142
Inclination
74.011°
RAAN
275.1565°
Arg. of periapsis
216.7768°
True anomaly
295.49867°
Mean anomaly
295.6453°
Eccentric anomaly
295.572°
Mean motion
3.11658 °/min
Orbital period
115.51 mins
BSTAR
0.0001099
Loading maneuver chart data...
Computing Atmospheric mass density...
Loading historical data...
Loading historical data...
Loading historical data...
Loading historical data...
Loading historical data...
Loading historical data...
Loading historical data...

Documentation

Showing up to 5 results
|